Location: Unspecified
(48.5670°N, 0.0000°E)
Time: 13:10:46
(UTC+00:00)

A-11 Canister half - All Passes

Search period start: 25 August 2019 00:00
Search period end: 04 September 2019 00:00
Orbit: 1514 x 1686 km, 47.2° (Epoch: 24 August)

Date Brightness Start Highest point End Pass type
(mag) Time Alt. Az. Time Alt. Az. Time Alt. Az.
25 Aug - 01:38:38 10° W 01:43:04 14° SW 01:47:32 10° SSW visible
25 Aug - 14:55:43 10° SSE 15:00:40 16° SE 15:05:40 10° E daylight
25 Aug - 16:54:52 10° SW 17:03:37 47° SE 17:12:39 10° ENE daylight
25 Aug - 18:58:28 10° WSW 19:07:55 80° SSE 19:17:46 10° E daylight
25 Aug - 21:03:14 10° W 21:12:51 78° SSW 21:22:50 10° ESE visible
25 Aug - 23:08:07 10° WNW 23:17:12 45° SW 23:26:33 10° SSE visible
26 Aug - 01:15:16 10° W 01:20:15 15° SW 01:25:19 10° SSW visible
26 Aug - 14:33:30 10° SSE 14:37:54 14° SE 14:42:19 10° E daylight
26 Aug - 16:32:06 10° SSW 16:40:46 45° SE 16:49:41 10° ENE daylight
26 Aug - 18:35:35 10° WSW 18:45:00 78° SSE 18:54:48 10° E daylight
26 Aug - 20:40:20 10° W 20:49:55 79° SSW 20:59:52 10° ESE visible
26 Aug - 22:45:12 10° WNW 22:54:19 47° SW 23:03:43 10° SE visible
27 Aug - 00:51:59 10° W 00:57:27 16° SW 01:03:00 10° SSW visible
27 Aug - 14:11:24 10° SSE 14:15:08 13° ESE 14:18:53 10° E daylight
27 Aug - 16:09:22 10° SSW 16:17:54 43° SE 16:26:42 10° ENE daylight
27 Aug - 18:12:42 10° WSW 18:22:05 77° SSE 18:31:50 10° E daylight
27 Aug - 20:17:25 10° W 20:26:59 80° S 20:36:55 10° ESE visible
27 Aug - 22:22:16 10° WNW 22:31:26 49° SSW 22:40:53 10° SE visible
28 Aug - 00:28:46 10° W 00:34:39 18° SW 00:40:37 10° SSW visible
28 Aug - 13:49:30 10° SE 13:52:22 12° ESE 13:55:15 10° ESE daylight
28 Aug - 15:46:38 10° SSW 15:55:04 41° SE 16:03:44 10° ENE daylight
28 Aug - 17:49:49 10° WSW 17:59:10 76° SSE 18:08:52 10° E daylight
28 Aug - 19:54:31 10° W 20:04:03 81° S 20:13:57 10° ESE visible
28 Aug - 21:59:21 10° WNW 22:08:33 51° SSW 22:18:03 10° SE visible
29 Aug - 00:05:36 10° W 00:11:50 19° SW 00:18:10 10° SSW visible
29 Aug - 13:28:05 10° SE 13:29:36 10° ESE 13:31:06 10° ESE daylight
29 Aug - 15:23:54 10° SSW 15:32:13 39° SE 15:40:45 10° ENE daylight
29 Aug - 17:26:57 10° WSW 17:36:15 74° SSE 17:45:55 10° E daylight
29 Aug - 19:31:36 10° W 19:41:07 82° S 19:51:00 10° ESE visible
29 Aug - 21:36:26 10° WNW 21:45:39 53° SSW 21:55:12 10° SE visible
29 Aug - 23:42:29 10° W 23:49:01 20° SW 23:55:41 10° S visible
30 Aug - 15:01:12 10° SSW 15:09:23 37° SE 15:17:46 10° ENE daylight
30 Aug - 17:04:04 10° WSW 17:13:21 73° SSE 17:22:58 10° E daylight
30 Aug - 19:08:43 10° W 19:18:11 82° S 19:28:03 10° E visible
30 Aug - 21:13:31 10° WNW 21:22:46 55° SSW 21:32:21 10° SE visible
30 Aug - 23:19:23 10° W 23:26:12 22° SW 23:33:09 10° S visible
31 Aug - 14:38:31 10° SSW 14:46:34 35° SE 14:54:47 10° ENE daylight
31 Aug - 16:41:12 10° WSW 16:50:27 71° SSE 17:00:01 10° E daylight
31 Aug - 18:45:49 10° W 18:55:16 83° S 19:05:05 10° E daylight
31 Aug - 20:50:36 10° WNW 20:59:52 57° SSW 21:09:28 10° SE visible
31 Aug - 22:56:19 10° W 23:03:23 23° SW 23:10:36 10° S visible
01 Sep - 14:15:51 10° SSW 14:23:45 33° SE 14:31:48 10° ENE daylight
01 Sep - 16:18:21 10° WSW 16:27:33 70° SSE 16:37:03 10° E daylight
01 Sep - 18:22:54 10° W 18:32:20 83° S 18:42:07 10° E daylight
01 Sep - 20:27:42 10° WNW 20:36:59 59° SSW 20:46:35 10° SE visible
01 Sep - 22:33:16 10° W 22:40:33 25° SW 22:48:01 10° S visible
02 Sep - 13:53:12 10° SSW 14:00:55 31° SE 14:08:47 10° E daylight
02 Sep - 15:55:30 10° WSW 16:04:40 68° SSE 16:14:06 10° E daylight
02 Sep - 18:00:00 10° W 18:09:24 84° S 18:19:09 10° E daylight
02 Sep - 20:04:47 10° WNW 20:14:05 61° SSW 20:23:42 10° SE visible
02 Sep - 22:10:14 10° W 22:17:43 26° SW 22:25:23 10° S visible
03 Sep - 13:30:33 10° SSW 13:38:06 30° SE 13:45:47 10° E daylight
03 Sep - 15:32:39 10° SW 15:41:46 66° SSE 15:51:10 10° ENE daylight
03 Sep - 17:37:06 10° W 17:46:29 84° S 17:56:12 10° E daylight
03 Sep - 19:41:53 10° WNW 19:51:11 63° SSW 20:00:49 10° SE visible
03 Sep - 21:47:14 10° W 21:54:53 28° SW 22:02:44 10° S visible
